Regional Weather Roundup
Issued by NWS Jackson, KY

Home | Current Version | Previous Version | Graphics & Text | Print | Product List | Glossary On
Versions: 1 2 3 4 5 6 7 8 9 10 11 12 13 14 15 16 17 18 19 20 21 22 23 24 25 26 27 28 29 30 31 32 33 34 35 36 37 38 39 40 41 42 43 44 45 46 47 48 49 50
000
ASUS43 KJKL 291010
RWRJKL

EAST KENTUCKY HOURLY WEATHER ROUNDUP
NATIONAL WEATHER SERVICE JACKSON KY
600 AM EDT WED JUL 29 2015

NOTE: "FAIR" INDICATES FEW OR NO CLOUDS BELOW 12,000 FEET WITH
NO SIGNIFICANT WEATHER AND/OR OBSTRUCTIONS TO VISIBILITY.

* THESE REPORTS ARE NOT UNDER NWS QUALITY CONTROL AND MAY NOT
  REPORT WEATHER SUCH AS PRECIPITATION AND FOG.

KYZ079-080-083-085-087-088-110-112-115-119-120-291100
...EASTERN KENTUCKY...

CITY           SKY/WX    TMP DP  RH WIND       PRES   REMARKS
JACKSON        FOG       72  71  97 CALM      30.01R VSB 3/4
LONDON         CLOUDY    72  68  87 SW3       30.02R
SOMERSET*      FOG       70  70 100 CALM      30.03R VSB 1/4
MONTICELLO*    PTCLDY    70  70 100 CALM      30.04R FOG
WILLIAMSBURG*  CLOUDY    68  68 100 CALM      30.03R
MIDDLESBORO*   CLOUDY    73  72  98 CALM      30.02R
HARLAN APT*      N/A     70  70 100 MISG      30.03R VSB 1/2
BLACK MTN*       N/A     66  66 100 NW1         N/A
PIKEVILLE APT* FOG       72  72 100 CALM      30.02R VSB 1/2
BIG SANDY*     FOG       74  73  99 SW5       30.00R VSB<1/4
MOREHEAD APT*  MOSUNNY   72  70  94 CALM      30.01R FOG
$$

KYZ035-036-041-042-044-050-067-078-099-291100
...CENTRAL KENTUCKY...

CITY           SKY/WX    TMP DP  RH WIND       PRES   REMARKS
MT STERLING*   CLEAR     70  70 100 CALM      30.02R FOG
FLEMING/MASON* FOG       70  70 100 W3        30.00R VSB 1
DANVILLE*      CLEAR     68  68 100 CALM      30.02R
RICHMOND*      CLEAR     70  66  88 CALM      30.00R
LEXINGTON      CLEAR     72  70  93 CALM      30.00R FOG
FRANKFORT      CLEAR     71  69  93 CALM      29.98R
$$

KYZ091>093-OHZ055-061-077-WVZ005-015-034-035-042-291100
...SOUTHERN OHIO/WEST VIRGINIA...

CITY           SKY/WX    TMP DP  RH WIND       PRES   REMARKS
COVINGTON      PTCLDY    73  71  93 CALM      29.98S FOG
COLUMBUS       PTCLDY    71  68  90 CALM      29.98R
DAYTON         CLEAR     71  70  96 CALM      29.99S
WILMINGTON     CLEAR     69  67  93 CALM      29.99R FOG
HUNTINGTON     PTCLDY    70  70 100 CALM      29.96R FOG
CHARLESTON     MOCLDY    72  71  97 CALM      29.98R FOG
PINEVILLE*     CLOUDY    71  71 100 MISG      30.08S FOG
BECKLEY        CLEAR     67  65  93 E3        30.06S FOG
BLUEFIELD      CLEAR     70  65  84 W8        30.09S
$$

VAZ002-007-008-TNZ017-027-036-066-071-291100
...SOUTHWEST VIRGINIA/EAST TENNESSEE...

CITY           SKY/WX    TMP DP  RH WIND       PRES   REMARKS
WISE*          CLOUDY    72  72 100 CALM      30.10R FOG
ABINGDON*      CLEAR     70  69  96 CALM      30.06R FOG
BRISTOL        PTCLDY    69  68  96 N3        30.03S FOG
KNOXVILLE      PTCLDY    75  72  90 CALM      29.99R
OAK RIDGE      MOCLDY    72  71  97 CALM      30.02R FOG
CROSSVILLE     PTCLDY    71  67  87 CALM      30.07R
NASHVILLE      MOCLDY    73  73 100 CALM      30.00R
$$

...KEY TO REMARKS...
VSB - VISIBILITY IN MILES
WCI - WIND CHILL INDEX
HX  - HEAT INDEX

$$



USA.gov is the U.S. government's official web portal to all federal, state and local government web resources and services.